TJS-7

Last updated on Sun Apr 12 2026 00:02:55 GMT+0000 (Coordinated Universal Time)

1 49115U 21077A 26101.50101731 -.00000122 00000+0 00000+0 0 9999 2 49115 0.3350 86.8172 0002304 302.8712 250.9425 1.00271773 8886
UTC large
Height (km)
Speed (km/s)
/
Latitude / Longitude
Inclination (degrees)
Orbital Period (minutes)
Azimuth
Elevation
Range (km)
Doppler Factor

Next 0 passes for location: London (51.5072 / 0.1276)

Sorry there are no passes over London.
TJS-7